Regional Weather Roundup
Issued by NWS

Home | Current Version | Previous Version | Graphics & Text | Print | Product List | Glossary On
Versions: 1 2 3 4 5 6 7 8 9 10 11 12 13 14 15 16 17 18 19 20 21 22 23 24 25 26 27 28 29 30 31 32 33 34 35 36 37 38 39 40 41 42 43 44 45 46 47 48 49 50
420
ASUS45 KBOI 120010
RWRID

IDAHO REGIONAL WEATHER ROUNDUP
NATIONAL WEATHER SERVICE BOISE ID
500 PM MST THU FEB 11 2016

NOTE: "FAIR" INDICATES FEW OR NO CLOUDS BELOW 12000 FEET
WITH NO SIGNIFICANT WEATHER AND/OR OBSTRUCTIONS TO VISIBILITY

IDZ012-014-120100-
SOUTHWEST IDAHO


CITY           SKY/WX    TMP DP  RH WIND       PRES   REMARKS
BOISE          CLOUDY    46  35  65 SW5       30.33R
CALDWELL       CLOUDY    45  35  68 SE5       30.33F
$$

IDZ016-017-120100-
SOUTHCENTRAL IDAHO


CITY           SKY/WX    TMP DP  RH WIND       PRES   REMARKS
BURLEY         CLEAR     39  30  70 NE9       30.32S WCI  33
JEROME         MOCLDY    35  28  75 NE21      30.33S WCI  24
TWIN FALLS     MOCLDY    38  33  82 NE9       30.33R WCI  31
$$

IDZ019>023-120100-
SOUTHEAST IDAHO


CITY           SKY/WX    TMP DP  RH WIND       PRES   REMARKS
IDAHO FALLS    CLOUDY    27  22  81 N7        30.40R WCI  19
POCATELLO      CLOUDY    34  25  69 NE6       30.38S WCI  29
REXBURG        CLOUDY    32  24  72 E3        30.38R
$$

IDZ006-010-011-018-031-032-120100-
CENTRAL IDAHO MOUNTAINS


CITY           SKY/WX    TMP DP  RH WIND       PRES   REMARKS
MCCALL         CLOUDY    38  29  70 SE3       30.28R
HAILEY         PTCLDY    37  28  70 NW3       30.37R
STANLEY          N/A     42  22  44 CALM      30.33R
SALMON         MOCLDY    30  21  69 CALM      30.35S
CHALLIS        MOCLDY    31  24  75 CALM      30.32F
$$

IDZ002-004-006-007-026-120100-
NORTHERN IDAHO


CITY           SKY/WX    TMP DP  RH WIND       PRES   REMARKS
LEWISTON       CLOUDY    51  38  60 E6        30.22S
LOWELL           N/A     47  40  76 N5        30.27S
COEUR D`ALENE  CLOUDY    45  36  70 NE13      30.24S
MULLAN PASS    CLOUDY    37  26  64 VRB6      30.24F WCI  32
$$




USA.gov is the U.S. government's official web portal to all federal, state and local government web resources and services.